TimeHST,TemperatureF,Dew PointF,Humidity,Sea Level PressureIn,VisibilityMPH,Wind Direction,Wind SpeedMPH,Gust SpeedMPH,PrecipitationIn,Events,Conditions,WindDirDegrees,DateUTC
12:54 AM,72.0,66.9,84,30.03,10.0,NW,4.6,-,N/A,,Partly Cloudy,310,2013-11-16 10:54:00
1:08 AM,73.4,69.8,88,30.01,10.0,NW,4.6,-,N/A,,Mostly Cloudy,310,2013-11-16 11:08:00
1:54 AM,72.0,68.0,87,30.01,10.0,Calm,Calm,-,N/A,,Mostly Cloudy,0,2013-11-16 11:54:00
2:14 AM,71.6,68.0,88,29.99,10.0,SE,8.1,-,N/A,,Scattered Clouds,130,2013-11-16 12:14:00
2:26 AM,71.6,68.0,88,29.99,10.0,SE,8.1,-,N/A,,Mostly Cloudy,130,2013-11-16 12:26:00
2:35 AM,71.6,68.0,88,29.99,10.0,SE,4.6,-,N/A,,Mostly Cloudy,130,2013-11-16 12:35:00
2:44 AM,71.6,68.0,88,29.99,10.0,Calm,Calm,-,N/A,,Mostly Cloudy,0,2013-11-16 12:44:00
2:54 AM,72.0,68.0,87,30.01,10.0,South,3.5,-,N/A,,Mostly Cloudy,180,2013-11-16 12:54:00
3:45 AM,71.6,68.0,88,29.99,10.0,SE,5.8,-,N/A,,Mostly Cloudy,130,2013-11-16 13:45:00
3:54 AM,71.1,68.0,90,30.01,10.0,SE,4.6,-,N/A,,Mostly Cloudy,140,2013-11-16 13:54:00
4:54 AM,71.1,68.0,90,30.03,10.0,Calm,Calm,-,N/A,,Overcast,0,2013-11-16 14:54:00
5:54 AM,73.0,64.9,76,30.03,10.0,ENE,8.1,-,N/A,,Partly Cloudy,60,2013-11-16 15:54:00
6:54 AM,75.9,68.0,76,30.04,10.0,NE,17.3,23.0,N/A,,Partly Cloudy,40,2013-11-16 16:54:00
7:54 AM,75.9,66.9,74,30.05,10.0,East,3.5,-,N/A,,Scattered Clouds,100,2013-11-16 17:54:00
8:54 AM,78.1,68.0,71,30.06,10.0,Calm,Calm,-,N/A,,Scattered Clouds,0,2013-11-16 18:54:00
9:54 AM,82.0,66.9,60,30.06,10.0,East,11.5,-,N/A,,Scattered Clouds,80,2013-11-16 19:54:00
10:54 AM,84.9,66.0,53,30.03,10.0,ENE,12.7,-,N/A,,Scattered Clouds,60,2013-11-16 20:54:00
11:54 AM,84.0,69.1,61,30.01,10.0,ENE,13.8,23.0,N/A,,Scattered Clouds,60,2013-11-16 21:54:00
12:54 PM,84.9,69.1,59,29.98,10.0,East,17.3,26.5,N/A,,Scattered Clouds,80,2013-11-16 22:54:00
1:54 PM,84.0,66.0,55,29.96,10.0,ENE,12.7,23.0,N/A,,Scattered Clouds,60,2013-11-16 23:54:00
2:54 PM,82.9,66.9,58,29.96,10.0,ENE,19.6,26.5,N/A,,Scattered Clouds,60,2013-11-17 00:54:00
3:54 PM,81.0,68.0,65,29.96,10.0,NE,17.3,27.6,N/A,,Partly Cloudy,50,2013-11-17 01:54:00
4:54 PM,79.0,66.9,66,29.96,10.0,ENE,16.1,26.5,N/A,,Partly Cloudy,60,2013-11-17 02:54:00
5:54 PM,77.0,68.0,74,29.98,10.0,ENE,17.3,25.3,N/A,,Partly Cloudy,60,2013-11-17 03:54:00
6:54 PM,75.9,64.9,69,30.01,10.0,ENE,12.7,20.7,N/A,,Partly Cloudy,60,2013-11-17 04:54:00
7:54 PM,75.9,66.0,71,30.03,10.0,ENE,15.0,19.6,N/A,,Partly Cloudy,60,2013-11-17 05:54:00
8:54 PM,75.9,66.0,71,30.04,10.0,ENE,8.1,20.7,N/A,,Partly Cloudy,70,2013-11-17 06:54:00
9:54 PM,75.9,66.9,74,30.04,10.0,NE,11.5,-,N/A,,Scattered Clouds,50,2013-11-17 07:54:00
10:54 PM,73.9,66.0,76,30.04,10.0,Calm,Calm,-,N/A,,Partly Cloudy,0,2013-11-17 08:54:00
11:54 PM,72.0,66.9,84,30.02,10.0,Calm,Calm,-,N/A,,Mostly Cloudy,0,2013-11-17 09:54:00